Find Kosmos-1481

NORAD ID: 14182 Int'l Des: 1983-070 Owner: PVO Country: SU operational
MEOELLIPTICALHEO_ELLIPTICALSEMI_SYNC

当前视图

正在加载3D地球...

About Kosmos-1481

Kosmos-1481 (NORAD 14182) is a satellite launched Jul 8, 1983 by PVO of SU. It operates in MEO, ELLIPTICAL, HEO_ELLIPTICAL, SEMI_SYNC orbit with a mass of 1250.00 kg.

即将过境

Passes for default location (London). Set your location on the main map for personalized predictions.

高度历史

Loading altitude history...

两行轨道根数

1 14182U 83070A 26194.38873963 .00000690 00000-0 00000+0 0 9997
2 14182 70.5209 250.9008 5639304 227.3068 68.9734 2.03575898240632
Epoch: Jul 13, 2026 • Age: 24 hours

当前状态

高度 24482.1 km
远地点 / 近地点 N/A
速度 3.27 km/s
星下点 4.90°N, 177.3°W
发射日期 Jul 8, 1983
运行时间 43 years
类型 other

技术详情

分类 Payload
质量 1250.00 kg
干质量 1150.00 kg
总质量 1250.00 kg
长度 4.00 m
直径 2.00 m
跨度 5.00 m
形状 Cyl + 2 Pan
制造商 NPOL/KOMET
平台类型 Oko
阶段状态 In Orbit
所有者/国家 PVO/SU

Most Searched